Theta_e
314 317 319 320 321 322 322 322 322 322 321 321 320 321 321 322 321 321 321 321 321 321 322 322 322 322 322 322 322 322 322 322 322 322 322 322 322 322 322 322 322 322
308 310 312 314 315 317 318 319 320 320 320 320 320 320 321 320 320 318 319 320 320 320 321 321 321 321 322 321 321 321 321 321 321 322 322 321 322 322 322 322 322 322
305 306 307 308 311 313 315 316 316 317 317 318 317 317 319 316 317 317 318 319 319 320 320 320 320 320 320 321 321 321 320 320 320 321 321 321 322 322 322 322 322 322
302 303 304 306 306 308 309 309 311 312 312 313 315 315 315 316 314 314 314 313 316 317 318 319 319 320 320 320 319 320 320 320 321 321 320 321 321 322 322 322 321 322
300 301 301 302 303 304 304 305 306 307 307 309 309 309 309 310 310 310 311 311 311 313 314 315 316 317 318 319 318 319 319 319 319 319 320 321 321 321 322 322 321 321
299 298 299 300 301 301 303 303 304 304 305 305 306 306 306 306 306 307 308 307 308 309 310 311 312 313 314 315 316 317 318 318 318 318 319 319 320 321 321 321 321 321
298 299 299 299 298 299 299 300 301 300 301 303 301 303 301 303 303 304 305 305 305 306 306 308 308 309 311 312 312 313 315 316 316 316 317 318 318 319 319 320 320 320
297 298 298 297 297 297 298 298 298 299 299 298 299 301 299 300 301 301 301 303 303 304 304 305 307 307 308 308 309 310 311 313 314 314 315 315 316 316 317 318 319 319
297 297 296 296 295 296 296 296 297 297 296 297 297 297 297 298 298 299 300 299 301 301 303 303 305 305 306 306 307 308 309 309 311 311 312 312 313 314 314 314 315 316
295 295 295 295 295 295 295 295 295 295 295 295 296 296 297 297 296 296 297 297 297 298 299 300 301 302 302 303 305 306 307 308 308 309 310 311 311 312 313 313 313 314
292 292 292 292 293 294 294 294 294 294 294 294 295 295 296 296 296 294 296 295 298 297 298 298 299 300 301 301 302 302 304 305 306 307 307 308 309 310 307 311 311 312
290 289 290 290 290 291 292 292 293 293 293 294 293 293 293 294 294 294 294 295 295 296 297 298 298 298 298 299 300 300 301 302 303 304 304 305 306 307 308 308 309 310
287 287 288 289 289 290 291 291 291 290 290 291 290 289 290 292 293 293 293 293 295 295 295 296 297 296 297 298 299 300 301 301 301 301 302 303 304 305 306 306 307 308
285 286 287 287 288 289 290 290 290 290 290 290 288 289 289 289 290 292 292 292 293 293 294 295 295 295 295 296 297 298 299 299 299 300 300 301 301 302 303 304 305 306
284 285 285 286 286 287 287 288 288 289 289 289 289 289 290 288 289 291 290 291 291 291 291 291 293 294 295 294 296 297 298 299 299 299 299 298 299 299 299 300 302 303
283 284 284 285 285 285 286 286 287 287 288 288 289 289 289 289 288 288 287 289 290 291 290 292 293 295 293 293 294 295 295 296 296 296 296 296 296 296 297 297 298 300
283 283 284 284 284 285 285 286 286 287 287 287 288 288 288 288 288 289 289 289 289 290 290 291 292 293 291 294 294 295 294 293 294 294 295 293 293 294 295 295 295 296
282 283 283 283 284 284 285 285 286 286 286 286 287 287 287 288 287 288 288 288 289 289 289 290 290 290 292 293 294 294 293 293 293 293 293 293 292 292 293 293 294 295
281 281 282 282 283 284 285 285 286 286 286 286 285 286 286 286 287 287 287 288 288 288 288 289 289 290 292 292 293 293 294 293 293 293 292 291 291 291 292 292 292 293
280 280 280 281 282 283 284 285 285 285 285 286 285 285 285 286 286 286 286 287 287 287 287 288 288 289 291 292 292 292 293 293 292 293 292 291 291 291 291 291 292 292
278 278 279 280 281 282 283 284 285 285 285 285 284 284 284 284 284 285 285 286 286 286 286 286 287 289 290 290 291 291 291 291 291 291 290 290 290 290 291 291 291 292
277 277 278 278 280 281 282 283 285 285 284 284 284 284 284 284 284 284 284 284 285 285 285 285 286 288 288 289 289 290 291 289 288 288 288 288 288 289 289 289 289 290
276 276 277 277 279 280 281 283 284 284 284 284 284 284 284 284 284 284 284 284 284 284 284 284 284 286 287 288 288 289 288 287 287 287 287 287 288 289 289 290 291 291
275 275 276 277 278 280 281 283 284 284 284 284 283 283 283 283 283 283 283 283 283 283 283 282 283 284 286 286 287 287 287 286 286 286 286 287 288 289 291 291 292 289
274 275 276 277 278 281 282 283 284 284 284 284 283 283 283 283 282 281 282 282 283 283 283 283 283 284 285 286 286 287 286 286 286 285 285 286 287 288 289 289 290 289
274 275 276 278 280 281 282 282 284 284 283 283 283 283 282 282 282 282 282 282 283 283 283 284 283 283 284 286 286 287 287 286 286 285 284 284 285 285 285 286 287 287
Wind_Speed
5 5 6 6 7 7 7 8 7 7 7 6 7 8 7 7 6 7 7 7 8 9 8 9 8 8 9 9 9 9 9 10 9 8 10 10 10 12 12 12 13 12
5 4 5 5 6 6 6 6 7 6 7 6 6 6 6 5 5 4 5 6 7 8 8 8 8 9 9 8 8 9 9 8 10 8 10 12 11 11 13 14 14 13
6 5 4 5 6 7 7 6 5 6 6 6 4 4 6 4 5 5 6 6 7 7 8 8 7 8 8 8 8 8 8 9 10 9 10 11 10 11 11 11 11 13
5 5 5 5 5 6 6 6 6 5 5 5 6 5 4 5 4 4 4 5 5 6 6 6 7 7 7 7 7 7 8 8 9 8 9 9 9 10 11 10 11 11
6 5 4 4 4 4 4 4 6 5 4 5 5 5 5 5 4 4 4 4 4 5 5 6 5 6 6 6 6 7 7 8 8 8 9 10 9 9 10 9 11 12
6 4 4 4 4 4 4 3 4 4 5 5 5 5 4 4 5 5 4 4 4 4 5 5 5 5 5 6 6 6 7 7 7 7 9 10 10 9 8 9 11 12
11 9 8 5 5 4 3 3 3 3 3 3 3 4 3 4 4 4 4 4 4 4 4 4 4 4 4 5 5 6 6 7 7 7 9 9 9 10 9 9 11 11
12 9 7 6 5 4 4 4 3 3 3 3 3 4 2 3 4 4 4 4 4 4 4 4 4 5 4 4 5 5 6 6 6 7 8 9 8 10 9 8 9 11
11 11 11 10 9 5 4 4 4 4 4 4 4 3 2 2 3 3 3 3 4 4 4 4 5 5 5 4 5 5 7 6 6 6 7 8 8 9 9 7 9 10
13 13 14 13 12 11 10 7 5 4 4 4 4 5 6 4 3 3 3 3 3 4 4 4 4 5 5 4 5 5 6 7 6 6 6 7 8 9 8 7 9 9
14 13 13 14 14 12 13 12 8 6 4 4 6 7 6 7 6 4 5 4 4 4 4 4 4 4 4 5 5 5 6 6 6 6 7 7 8 8 8 8 9 9
14 13 14 13 13 12 12 12 12 9 7 4 4 4 5 4 6 6 5 6 5 5 5 5 4 4 4 5 5 5 5 5 6 7 7 8 8 8 8 8 9 10
14 14 12 12 12 12 10 10 11 10 10 8 6 3 3 4 4 4 4 4 6 5 6 6 5 4 3 4 5 5 5 6 6 7 7 7 7 8 8 8 8 9
12 12 12 12 11 11 11 11 11 11 11 10 7 5 4 3 4 4 4 3 4 4 5 5 5 4 4 4 4 4 5 6 6 7 8 8 7 8 8 8 8 8
11 10 9 12 12 12 12 12 12 11 11 10 9 9 6 4 3 4 5 5 4 4 4 4 4 5 4 4 4 4 4 6 6 7 8 8 9 8 8 7 8 8
11 10 10 10 10 12 11 12 11 11 11 11 11 10 8 7 6 4 4 5 7 6 4 4 3 4 5 8 7 6 6 6 6 7 7 7 8 9 9 7 7 7
12 11 11 11 11 10 10 11 12 11 11 11 11 10 10 10 9 8 6 5 6 7 8 5 3 4 8 10 10 11 8 6 7 7 6 6 7 8 9 9 7 7
12 12 12 12 11 12 12 12 11 11 11 12 12 13 12 10 10 9 8 7 7 7 7 6 3 5 10 11 12 12 10 8 7 7 7 6 6 7 8 8 8 8
13 13 13 12 12 11 11 11 11 11 11 12 13 11 11 11 11 10 10 8 8 9 9 6 5 7 10 11 11 12 12 11 7 7 7 8 7 7 8 8 8 8
11 11 12 12 12 12 11 11 10 10 10 9 10 10 11 12 11 12 10 10 9 9 9 7 6 8 12 13 13 14 13 11 8 8 7 8 8 8 8 8 8 7
11 10 11 11 12 12 12 11 9 9 10 9 9 9 10 11 11 12 11 10 10 10 10 9 6 12 13 14 15 16 16 12 7 7 7 8 7 7 8 8 8 7
12 11 11 11 10 11 11 11 10 9 10 9 9 8 7 7 8 8 9 10 10 10 9 8 7 12 14 15 16 16 17 8 7 7 8 8 8 6 6 6 6 6
12 13 12 11 11 11 11 11 10 10 9 7 9 8 9 8 8 8 8 9 10 9 9 8 7 10 14 15 15 17 12 6 7 7 7 8 8 7 6 7 6 6
12 12 13 13 12 12 11 11 10 8 9 8 9 11 10 8 8 8 8 7 8 10 9 11 8 10 15 15 15 15 12 8 7 7 8 7 8 8 6 6 6 8
11 12 12 12 12 11 11 12 10 8 8 8 8 8 9 9 8 9 9 7 6 8 9 9 8 8 13 14 15 14 10 5 6 8 8 7 7 9 7 6 7 5
12 12 12 11 12 11 11 10 9 7 7 8 7 7 8 8 8 8 10 9 7 7 7 7 7 7 9 16 15 14 14 8 5 7 9 10 8 8 10 9 5 6
Wind_Direction
280 281 271 262 254 250 259 262 261 260 256 249 243 244 234 239 227 223 223 222 225 231 232 233 233 232 232 234 231 231 231 232 235 232 232 232 234 233 237 234 234 234
302 299 287 280 276 267 263 261 269 260 259 251 249 255 261 255 254 239 236 233 229 231 233 234 232 232 233 231 230 231 233 230 237 228 235 233 234 234 237 236 237 238
332 326 316 298 288 289 283 283 272 265 259 264 272 265 261 257 252 236 233 230 235 236 236 236 237 234 232 233 231 230 232 233 236 233 233 237 235 236 238 236 239 238
330 317 311 301 295 291 299 302 291 286 289 282 266 264 260 264 260 258 252 241 240 247 244 243 241 242 239 238 235 236 235 235 237 236 239 240 236 238 240 238 242 240
321 317 301 291 290 288 296 295 294 296 290 286 306 306 296 285 284 275 266 265 250 254 256 253 252 251 247 248 238 244 241 243 242 237 241 244 240 236 242 240 242 244
327 318 309 303 293 294 300 299 297 309 309 316 304 310 300 304 297 289 285 280 266 254 259 257 254 253 247 247 244 242 244 244 245 236 242 245 247 240 243 241 244 247
324 327 326 327 322 301 284 281 291 293 292 278 304 293 292 288 283 282 289 284 284 278 268 267 260 258 249 245 244 248 243 244 247 238 243 245 245 248 242 242 244 248
324 323 324 328 332 322 308 307 294 290 285 297 285 283 291 283 282 280 282 286 283 284 282 277 276 272 264 247 248 247 251 240 243 240 243 247 240 249 244 237 244 245
338 341 339 340 339 334 336 336 333 324 323 313 302 294 280 258 272 283 286 287 285 279 283 281 277 280 282 277 268 264 267 265 251 247 249 253 250 249 249 240 243 245
357 352 349 349 347 339 335 338 340 344 341 340 332 328 332 326 320 307 303 291 282 282 275 278 281 279 284 274 266 264 265 268 269 262 258 259 261 262 262 254 250 256
353 353 351 348 345 340 335 331 336 341 357 360 353 351 346 340 340 344 329 323 308 293 290 284 276 280 285 285 278 273 272 274 273 271 267 265 263 264 266 263 264 260
350 349 346 342 340 338 335 332 329 337 342 350 7 351 344 346 339 341 336 324 319 307 299 291 290 288 285 285 286 285 280 274 275 273 272 271 270 267 264 262 263 265
345 343 339 336 336 332 331 332 334 330 332 337 337 334 343 338 340 335 328 322 309 309 304 301 302 304 293 287 287 289 286 285 282 279 275 273 271 269 266 263 261 262
340 335 336 336 331 332 335 335 334 333 332 325 322 331 340 336 331 325 310 304 294 291 289 294 294 298 290 280 278 275 280 279 277 279 279 277 274 271 269 267 265 263
331 332 332 333 333 334 337 338 336 332 329 327 324 326 328 325 320 320 316 313 296 280 286 283 283 279 268 268 270 274 264 273 277 277 278 281 279 275 270 267 266 263
330 329 330 331 333 335 334 333 333 332 331 329 329 327 326 331 333 325 316 315 318 315 306 304 297 277 273 276 277 273 272 266 266 262 262 265 272 278 276 266 263 265
330 331 331 333 332 330 329 330 331 331 330 328 329 330 330 332 330 327 329 322 314 312 314 321 328 308 298 296 290 280 275 273 268 271 260 258 262 265 273 277 270 264
328 328 330 329 330 330 329 328 327 331 332 331 331 333 332 329 329 327 326 326 320 314 308 313 319 296 299 301 297 291 284 277 273 271 271 265 260 262 266 271 275 273
329 329 327 326 326 324 322 323 326 328 332 333 330 327 325 328 326 327 324 322 317 313 311 316 318 306 306 304 301 297 293 288 278 270 271 272 268 265 268 271 273 278
323 322 319 321 321 320 318 318 321 325 324 322 319 325 326 323 324 323 322 321 317 311 308 317 321 315 317 318 315 309 306 302 285 284 276 271 271 270 270 272 270 274
318 316 314 314 318 318 316 314 314 316 319 320 319 320 321 321 321 321 318 316 315 312 312 318 322 318 320 321 319 315 313 312 294 288 283 277 273 269 270 271 276 275
315 311 308 308 306 311 313 311 309 314 316 317 312 309 304 304 306 307 311 312 312 309 308 314 318 320 322 324 322 321 323 316 307 297 293 289 284 281 275 277 281 282
313 310 308 306 304 303 305 306 308 315 316 313 306 309 311 317 313 316 313 312 313 313 314 316 316 320 327 331 335 334 333 324 317 306 297 297 295 294 285 277 274 271
305 304 303 302 302 300 300 304 305 310 312 314 314 316 315 318 321 319 315 311 312 317 319 320 322 324 337 342 342 342 344 336 325 316 305 300 300 295 292 286 285 280
300 297 293 292 292 295 305 307 306 308 310 312 309 307 309 316 322 317 314 307 302 303 305 315 323 331 341 346 344 345 345 327 331 324 315 313 312 312 311 307 304 304
298 295 293 296 302 305 303 301 300 301 304 300 304 302 303 307 306 304 307 308 307 303 303 307 318 330 338 349 348 347 347 341 317 327 326 319 317 315 318 315 317 318